Hourly Data Report for August 27, 2004

SHERBROOKE A
QUEBEC

45°26'00.000" N
71°41'00.000" W
241.40 m
7028124
71610
YSC

Download Data

Hourly Data (August 2004)
Hourly Data Report for August 27, 2004
TIME
LST
Temp Definition
°C
Dew Point Definition
°C
Rel Hum Definition
%
Precip. Amount Definition
mm

Wind Dir Definition
10's deg

Wind Spd Definition
km/h
Visibility Definition
km
Stn Press Definition
kPa
Hmdx Definition


Wind Chill Definition


Weather Definition


00:00 15.9 14.4 91   12 6 5.6 99.13      
01:00 16.0 14.4 90   14 4 6.4 99.13      
02:00 15.0 13.8 93   10 4 5.6 99.09      
03:00 14.5 13.6 94     0 3.4 99.08      
04:00 13.9 13.0 94   9 4 4.8 99.05      
05:00 14.5 13.6 94   8 4 4.8 99.07      
06:00 15.9 14.6 92   10 4 6.4 99.08      
07:00 17.3 15.7 90     0 11.3 99.08     Mostly Cloudy
08:00 18.7 16.3 86     0 11.3 99.05     Mostly Cloudy
09:00 18.3 16.2 88   25 4 11.3 99.02     Rain
10:00 18.9 16.9 88   33 4 11.3 98.98     Cloudy
11:00 20.7 17.4 81   18 7 14.5 98.90 26   Cloudy
12:00 24.0 18.2 70   25 15 16.1 98.81 30   Mostly Cloudy
13:00 25.3 19.0 68   24 11 16.1 98.75 32   Mostly Cloudy
14:00 24.8 18.7 69   24 15 16.1 98.69 31   Cloudy
15:00 25.5 19.2 68   23 7 16.1 98.61 32   Mostly Cloudy
16:00 25.9 19.6 68   24 7 16.1 98.56 33   Mostly Cloudy
17:00 26.1 19.9 69   21 6 9.7 98.47 34    
18:00 24.1 19.7 76   21 4 9.7 98.48 31    
19:00 22.5 19.7 84   19 4 8.0 98.46 30    
20:00 22.4 19.2 82   20 7 8.0 98.47 29    
21:00 22.2 19.0 82   20 7 8.0 98.47 29    
22:00 21.8 18.6 82   21 7 8.0 98.43 28    
23:00 21.3 18.5 84   21 6 8.0 98.38 28    

Notes on Data Quality.

Legend

  • E = Estimated
  • M = Missing
  • NA = Not Available*
  • [empty] = Indicates an unobserved value
Date modified: